Simultaneous Nadir Overpasses (SNOs) Predictions

Prediction of SNOs between GOES-17 and METOP-C Satellite Orbit:

Table of predicted SNOs for the next 14.0 days since TLE Epoch: 10/21/2023
Index Date Time (GOES-17) GOES-17 Lat,Lon METOP-C Lat,Lon Distance(km) Time Diff (sec)
1 10/21/2023 04:30:22 -0.01,-104.67 -0.04,-104.93 29.34 80
2 10/23/2023 16:28:34 -0.00,-104.68 -0.04,-104.49 20.99 80
3 10/26/2023 04:24:16 0.00,-104.66 0.12,-104.09 64.23 80
4 10/27/2023 16:43:07 -0.00,-104.66 0.90,-108.65 454.05 80
5 10/28/2023 16:25:08 -0.00,-104.66 -0.21,-103.65 115.17 80
6 10/30/2023 04:44:09 0.01,-104.65 -0.79,-108.25 409.83 80
7 10/31/2023 04:20:50 0.01,-104.65 0.32,-103.25 158.92 80
8 11/01/2023 16:39:41 -0.02,-104.65 0.69,-107.81 360.04 80
9 11/02/2023 16:21:41 0.02,-104.65 -0.42,-102.81 209.96 80
